map of TGZ home
TGZ - Airport
Location
City:  Tuxtla Gutiérrez, Chiapas, México
Near (Alt.):Chiapa de Corzo
Name:Ángel Albino Corzo International Airport
ICAO:MMTG
IATA:TGZ

Details
Type:Airport (Aerodrome, Airfield)
Use:Public/Civil, International (customs port of entry)
Latitude:16°34'17"N (16.571389)
Longitude:93°01'56"W (-93.032221)
Elevation:1499 ft (457 m)
Variation:1.97°E (WMM2015v2 magnetic declination)
-0.11° annual change
Runways:1
Longest:8202 × 148 ft (2500 × 45 m), paved

Time
Time Zone:UTC-6 (DST-5)
Local Time:

Weather
METAR:MMTG 041352Z 16002KT 3SM HZ SCT080 21/18 A2998 RMK 8/030 FU HZ

Related Locations
Nearby:
Farthest:CCK: 11719 mi / 18861 km
West Island (Pulau Panjang) [Cocos (Keeling) Islands], CC

Find:

   beyond  
but within

Other Information
Maps:
NOTAMs:
Links:
Sources:

  
  • flag of México
  • flag of Chiapas
  

Sectional Chart

Flight Planning
at skyvector.com

Satellite Image

Google Maps Satellite view

 

Copyright © 2004-2019 Karl L. Swartz. All rights reserved.
The Great Circle Mapper name and logo are trademarks of the Great Circle Mapper.
All other trademarks mentioned herein belong to their respective owners.
Please see credits for attibutions and further copyright information.

  Follow gcmap on Facebook Follow gcmap on Twitter GCmap on LinkedIn

hCard Microformat

Geo Microformat